When you browse on this site, cookies collect data to enhance your experience and personalize the content and advertising you see.
Visit our Privacy Policy to learn more. By continuing to use the site, you agree to this use of cookies and data.
  • In Hungary
  • List of Countries
  • For 7 days
  • Water Temperature
  • Weather Map
  • News
  • Weather Widgets
  • user-avatar
    Login

    Hourly Weather Dyundino

    Today, 22 January, Wednesday

    Time Temperature Precipitation Wind Pressure Humidity
    00:00 0°C° 0 mm 5 mps 742 mmHg 77%
    01:00 -1°C° 0 mm 6 mps 742 mmHg 76%
    02:00 -2°C° 0 mm 6 mps 742 mmHg 74%
    03:00 -1°C° 0 mm 5 mps 741 mmHg 74%
    04:00 -1°C° 0 mm 5 mps 740 mmHg 73%
    05:00 -1°C° 0 mm 5 mps 739 mmHg 73%
    06:00 -1°C° 0 mm 5 mps 738 mmHg 75%
    07:00 -1°C° 0 mm 4 mps 738 mmHg 77%
    08:00 -1°C° 0 mm 4 mps 737 mmHg 79%
    09:00 0°C° 0 mm 5 mps 737 mmHg 79%
    10:00 0°C° 0 mm 5 mps 737 mmHg 78%
    11:00 -1°C° 0 mm 6 mps 736 mmHg 77%
    12:00 -1°C° 0.3 mm 6 mps 736 mmHg 78%
    13:00 -1°C° 0.3 mm 6 mps 736 mmHg 78%
    14:00 -2°C° 0.3 mm 6 mps 736 mmHg 79%
    15:00 -1°C° 0.1 mm 5 mps 737 mmHg 77%
    16:00 -2°C° 0.1 mm 5 mps 737 mmHg 75%
    17:00 -4°C° 0.1 mm 5 mps 738 mmHg 73%
    18:00 -4°C° 0 mm 5 mps 738 mmHg 74%
    19:00 -4°C° 0 mm 5 mps 739 mmHg 74%
    20:00 -4°C° 0 mm 5 mps 740 mmHg 75%
    21:00 -4°C° 0 mm 5 mps 740 mmHg 76%
    22:00 -4°C° 0 mm 6 mps 740 mmHg 77%
    23:00 -4°C° 0 mm 6 mps 740 mmHg 78%

    Tomorrow, 23 January, Thursday

    Time Temperature Precipitation Wind Pressure Humidity
    00:00 -4°C° 0.1 mm 6 mps 741 mmHg 77%
    01:00 -5°C° 0.1 mm 6 mps 742 mmHg 76%
    02:00 -6°C° 0.1 mm 7 mps 743 mmHg 75%
    03:00 -6°C° 0 mm 7 mps 743 mmHg 70%
    04:00 -6°C° 0 mm 6 mps 744 mmHg 66%
    05:00 -6°C° 0 mm 6 mps 744 mmHg 61%
    06:00 -6°C° 0 mm 6 mps 745 mmHg 60%
    07:00 -6°C° 0 mm 6 mps 745 mmHg 60%
    08:00 -6°C° 0 mm 6 mps 746 mmHg 59%
    09:00 -6°C° 0 mm 6 mps 747 mmHg 56%
    10:00 -5°C° 0 mm 6 mps 747 mmHg 53%
    11:00 -5°C° 0 mm 6 mps 747 mmHg 49%
    12:00 -4°C° 0 mm 6 mps 748 mmHg 50%
    13:00 -4°C° 0 mm 6 mps 748 mmHg 50%
    14:00 -4°C° 0 mm 6 mps 748 mmHg 51%
    15:00 -4°C° 0 mm 6 mps 748 mmHg 56%
    16:00 -4°C° 0 mm 5 mps 748 mmHg 62%
    17:00 -4°C° 0 mm 4 mps 748 mmHg 68%
    18:00 -4°C° 0 mm 4 mps 748 mmHg 70%
    19:00 -4°C° 0 mm 4 mps 748 mmHg 72%
    20:00 -4°C° 0 mm 3 mps 749 mmHg 75%
    21:00 -4°C° 0 mm 3 mps 749 mmHg 78%
    22:00 -4°C° 0 mm 3 mps 749 mmHg 81%
    23:00 -4°C° 0 mm 3 mps 748 mmHg 83%

    Day after tomorrow, 24 January, Friday

    Time Temperature Precipitation Wind Pressure Humidity
    00:00 -2°C° 0 mm 3 mps 748 mmHg 84%
    01:00 -3°C° 0 mm 4 mps 748 mmHg 85%
    02:00 -3°C° 0 mm 4 mps 747 mmHg 86%
    03:00 -4°C° 0 mm 5 mps 746 mmHg 87%
    04:00 -4°C° 0 mm 5 mps 746 mmHg 88%
    05:00 -4°C° 0 mm 5 mps 745 mmHg 89%
    06:00 -2°C° 0.2 mm 5 mps 744 mmHg 91%
    07:00 -3°C° 0.2 mm 6 mps 744 mmHg 93%
    08:00 -3°C° 0.2 mm 6 mps 743 mmHg 95%
    09:00 -2°C° 0.1 mm 6 mps 743 mmHg 95%
    10:00 0°C° 0.1 mm 5 mps 743 mmHg 94%
    11:00 +1°C° 0.1 mm 5 mps 743 mmHg 93%
    12:00 +1°C° 0 mm 5 mps 743 mmHg 93%
    13:00 +1°C° 0 mm 5 mps 743 mmHg 93%
    14:00 +1°C° 0 mm 5 mps 743 mmHg 93%
    15:00 +1°C° 0 mm 6 mps 742 mmHg 93%
    16:00 +1°C° 0 mm 6 mps 742 mmHg 92%
    17:00 +1°C° 0 mm 6 mps 742 mmHg 92%
    18:00 +1°C° 0.1 mm 6 mps 742 mmHg 92%
    19:00 +1°C° 0.1 mm 6 mps 742 mmHg 92%
    20:00 +1°C° 0.1 mm 6 mps 742 mmHg 92%
    21:00 +1°C° 0.2 mm 6 mps 742 mmHg 93%
    22:00 +1°C° 0.2 mm 6 mps 741 mmHg 93%
    23:00 +1°C° 0.2 mm 6 mps 741 mmHg 93%

    25 January, Saturday

    Time Temperature Precipitation Wind Pressure Humidity
    00:00 +1°C° 0.4 mm 5 mps 741 mmHg 93%
    01:00 +1°C° 0.4 mm 5 mps 741 mmHg 94%
    02:00 +1°C° 0.4 mm 5 mps 741 mmHg 94%
    03:00 +1°C° 0.2 mm 5 mps 741 mmHg 94%
    04:00 +1°C° 0.2 mm 5 mps 740 mmHg 94%
    05:00 +1°C° 0.2 mm 5 mps 740 mmHg 94%
    06:00 +1°C° 0 mm 5 mps 740 mmHg 94%
    07:00 +1°C° 0 mm 4 mps 740 mmHg 93%
    08:00 +1°C° 0 mm 4 mps 740 mmHg 93%
    09:00 +1°C° 0.1 mm 4 mps 741 mmHg 92%
    10:00 +1°C° 0.1 mm 4 mps 741 mmHg 90%
    11:00 +3°C° 0.1 mm 4 mps 741 mmHg 89%
    12:00 +3°C° 0.1 mm 4 mps 741 mmHg 86%
    13:00 +3°C° 0.1 mm 4 mps 741 mmHg 82%
    14:00 +3°C° 0.1 mm 4 mps 741 mmHg 78%
    15:00 +1°C° 0 mm 4 mps 741 mmHg 81%
    16:00 0°C° 0 mm 4 mps 742 mmHg 83%
    17:00 +1°C° 0 mm 3 mps 742 mmHg 86%
    18:00 -1°C° 0 mm 4 mps 742 mmHg 86%
    19:00 -1°C° 0 mm 4 mps 742 mmHg 87%
    20:00 -1°C° 0 mm 4 mps 742 mmHg 88%
    21:00 -1°C° 0 mm 4 mps 743 mmHg 86%
    22:00 -1°C° 0 mm 4 mps 743 mmHg 85%
    23:00 -1°C° 0 mm 4 mps 743 mmHg 83%

    26 January, Sunday

    Time Temperature Precipitation Wind Pressure Humidity
    00:00 -2°C° 0 mm 4 mps 744 mmHg 85%
    01:00 -2°C° 0 mm 4 mps 744 mmHg 86%
    02:00 -2°C° 0 mm 4 mps 744 mmHg 88%
    03:00 -2°C° 0 mm 4 mps 745 mmHg 89%
    04:00 -2°C° 0 mm 4 mps 745 mmHg 91%
    05:00 -3°C° 0 mm 4 mps 745 mmHg 92%
    06:00 -2°C° 0 mm 3 mps 746 mmHg 92%
    07:00 -2°C° 0 mm 3 mps 746 mmHg 92%
    08:00 -2°C° 0 mm 3 mps 747 mmHg 92%
    09:00 -1°C° 0 mm 3 mps 747 mmHg 90%
    10:00 -1°C° 0 mm 3 mps 748 mmHg 88%
    11:00 -1°C° 0 mm 2 mps 748 mmHg 86%
    12:00 +1°C° 0 mm 2 mps 748 mmHg 85%
    13:00 +1°C° 0 mm 2 mps 749 mmHg 83%
    14:00 +2°C° 0 mm 2 mps 749 mmHg 81%
    15:00 +1°C° 0 mm 2 mps 749 mmHg 85%
    16:00 -1°C° 0 mm 2 mps 749 mmHg 89%
    17:00 -2°C° 0 mm 2 mps 749 mmHg 93%
    18:00 -1°C° 0 mm 2 mps 749 mmHg 92%
    19:00 -1°C° 0 mm 3 mps 749 mmHg 91%
    20:00 -1°C° 0 mm 3 mps 750 mmHg 90%
    21:00 -1°C° 0 mm 3 mps 750 mmHg 87%
    22:00 -1°C° 0 mm 3 mps 750 mmHg 85%
    23:00 0°C° 0 mm 3 mps 750 mmHg 82%

    27 January, Monday

    Time Temperature Precipitation Wind Pressure Humidity
    00:00 +1°C° 0 mm 2 mps 750 mmHg 81%
    01:00 -1°C° 0 mm 2 mps 749 mmHg 80%
    02:00 -1°C° 0 mm 2 mps 749 mmHg 79%
    03:00 -1°C° 0 mm 2 mps 749 mmHg 80%
    04:00 -1°C° 0 mm 2 mps 749 mmHg 81%
    05:00 -1°C° 0 mm 2 mps 749 mmHg 82%
    06:00 -1°C° 0 mm 3 mps 749 mmHg 85%
    07:00 -1°C° 0 mm 3 mps 748 mmHg 88%
    08:00 -1°C° 0 mm 3 mps 748 mmHg 90%
    09:00 -1°C° 0 mm 3 mps 748 mmHg 92%
    10:00 0°C° 0 mm 3 mps 748 mmHg 94%
    11:00 -1°C° 0 mm 4 mps 748 mmHg 96%
    12:00 0°C° 0 mm 4 mps 747 mmHg 91%
    13:00 0°C° 0 mm 4 mps 747 mmHg 85%
    14:00 0°C° 0 mm 4 mps 747 mmHg 80%
    15:00 -1°C° 0 mm 4 mps 746 mmHg 82%
    16:00 -1°C° 0 mm 4 mps 746 mmHg 84%
    17:00 -2°C° 0 mm 4 mps 746 mmHg 86%
    18:00 -1°C° 0 mm 4 mps 746 mmHg 86%
    19:00 -1°C° 0 mm 4 mps 746 mmHg 87%
    20:00 -1°C° 0 mm 5 mps 745 mmHg 88%
    21:00 -1°C° 0 mm 4 mps 745 mmHg 90%
    22:00 -1°C° 0 mm 4 mps 745 mmHg 92%
    23:00 -1°C° 0 mm 4 mps 745 mmHg 95%
    Show more